FW5447 Weather Reports


time (UTC)temp
F
wind
direction
speed
knots
gust
knots
rain 1hr
in
rain 24hr
in
rain mn
in
humidity
%
barometer
mb
20260507095517 55 17 2.6 7.8 0.00 0.00 0.00 30 1012.1
20260507094519 54 34 4.3 7.8 0.00 0.00 0.00 31 1012.3
20260507093518 54 322 1.7 4.3 0.00 0.00 0.00 32 1012.0
20260507092559 54 50 3.5 7.0 0.00 0.00 0.00 33 1012.1
20260507091539 54 344 1.7 4.3 0.00 0.00 0.00 35 1011.7
20260507090515 53 33 2.6 7.0 0.00 0.00 0.00 36 1012.2
20260507085515 53 31 2.6 7.0 0.00 0.00 0.00 36 1012.1
20260507084515 52 58 1.7 4.3 0.00 0.00 0.00 38 1011.9
20260507083536 51 51 1.7 7.0 0.00 0.00 0.00 38 1012.8
20260507082516 51 69 2.6 5.2 0.00 0.00 0.00 37 1012.8
20260507081516 51 88 1.7 3.5 0.00 0.00 0.00 38 1012.6
20260507080516 51 141 1.7 3.5 0.00 0.00 0.00 39 1012.9
20260507075517 51 139 1.7 4.3 0.00 0.00 0.00 39 1012.8
20260507074517 51 56 2.6 5.2 0.00 0.00 0.00 39 1012.8
20260507073537 51 73 1.7 3.5 0.00 0.00 0.00 41 1012.8
20260507072517 50 128 1.7 3.5 0.00 0.00 0.00 41 1013.1
20260507071517 51 48 2.6 6.1 0.00 0.00 0.00 40 1012.8
20260507070517 51 94 1.7 5.2 0.00 0.00 0.00 41 1012.5
20260507065517 51 98 1.7 4.3 0.00 0.00 0.00 40 1012.3
20260507064539 50 117 1.7 2.6 0.00 0.00 0.00 41 1012.4
20260507063519 49 110 1.7 4.3 0.00 0.00 0.00 42 1012.5
20260507062517 49 49 2.6 5.2 0.00 0.00 0.00 44 1012.7
20260507061518 48 90 0.9 4.3 0.00 0.00 0.00 44 1012.9
20260507060518 48 109 0.9 2.6 0.00 0.00 0.00 45 1012.8
20260507055518 48 53 2.6 6.1 0.00 0.00 0.00 45 1012.3
20260507054516 47 103 1.7 4.3 0.00 0.00 0.00 46 1012.2
20260507053515 46 54 1.7 5.2 0.00 0.00 0.00 49 1012.8
20260507052535 45 45 2.6 6.1 0.00 0.00 0.00 50 1012.7
20260507051516 45 77 0.9 3.5 0.00 0.00 0.00 52 1012.8
20260507050536 44 53 1.7 6.1 0.00 0.00 0.00 54 1012.7
20260507045516 43 132 0.9 1.7 0.00 0.00 0.00 56 1012.7
20260507044537 43 130 0.9 1.7 0.00 0.00 0.00 59 1012.7
20260507043557 42 137 0.0 1.7 0.00 0.00 0.00 62 1012.7
20260507042516 41 39 0.9 3.5 0.00 0.00 0.00 63 1012.7
20260507041537 40 139 0.0 0.9 0.00 0.00 0.00 69 1012.7
20260507040520 39 196 0.0 0.9 0.00 0.00 0.00 70 1012.8
20260507035537 38 158 0.9 1.7 0.00 0.00 0.00 69 1013.0
20260507034517 38 152 0.9 1.7 0.00 0.00 0.00 69 1013.3
20260507033517 37 178 0.0 0.9 0.00 0.00 0.00 71 1013.4
20260507032517 37 175 0.0 0.9 0.00 0.00 0.00 72 1013.3
20260507031518 36 157 0.0 0.9 0.00 0.00 0.00 75 1013.3
20260507030538 36 187 0.0 0.9 0.00 0.00 0.00 76 1013.4
20260507025518 36 195 0.0 0.9 0.00 0.00 0.00 77 1013.4
20260507024538 36 166 0.0 0.9 0.00 0.00 0.00 78 1013.4
20260507023539 37 195 0.9 0.9 0.00 0.00 0.00 77 1013.4
20260507022515 37 186 0.0 0.9 0.00 0.00 0.00 77 1013.4
20260507021516 37 210 0.0 0.9 0.00 0.00 0.00 77 1013.4
20260507020516 37 200 0.0 0.9 0.00 0.00 0.00 77 1013.4
20260507015516 37 171 0.0 0.9 0.00 0.00 0.00 77 1013.2
20260507014515 36 198 0.0 0.9 0.00 0.00 0.00 80 1013.3
20260507013516 36 176 0.0 0.9 0.00 0.00 0.00 84 1013.4
20260507012516 36 205 0.0 0.0 0.00 0.00 0.00 83 1013.5
20260507011517 37 159 1.7 3.5 0.00 0.00 0.00 84 1013.5
20260507010517 37 218 0.0 0.9 0.00 0.00 0.00 80 1013.4
20260507005537 37 296 0.0 0.9 0.00 0.00 0.00 79 1013.4
20260507004517 37 186 0.0 0.9 0.00 0.00 0.00 80 1013.5
20260507003517 37 273 0.0 0.9 0.00 0.00 0.00 79 1013.4
20260507002517 37 198 0.9 1.7 0.00 0.00 0.00 78 1013.4
20260507001517 37 199 0.0 0.9 0.00 0.00 0.00 79 1013.4
20260507000517 37 195 0.9 1.7 0.00 0.00 0.00 79 1013.3
20260506235518 37 240 0.9 0.9 0.00 0.00 0.00 77 1013.1
20260506234518 37 294 0.0 1.7 0.00 0.00 0.00 76 1013.2
20260506233518 37 256 0.9 1.7 0.00 0.00 0.00 76 1013.2
20260506232515 38 183 0.9 1.7 0.00 0.00 0.00 76 1013.2
20260506231538 38 290 0.0 0.9 0.00 0.00 0.00 76 1013.3
20260506230535 38 261 0.0 0.9 0.00 0.00 0.00 75 1013.3
20260506225518 38 255 0.0 1.7 0.00 0.00 0.00 74 1013.3
20260506224536 38 267 0.0 1.7 0.00 0.00 0.00 74 1013.3
20260506223515 38 245 0.0 1.7 0.00 0.00 0.00 73 1013.3
20260506222516 39 186 0.0 1.7 0.00 0.00 0.00 72 1013.3
20260506221516 39 248 0.0 0.9 0.00 0.00 0.00 73 1013.2
20260506220516 39 143 0.0 0.9 0.00 0.00 0.00 73 1013.2
20260506215516 39 175 0.0 0.9 0.00 0.00 0.00 73 1013.1
20260506214516 39 304 0.0 1.7 0.00 0.00 0.00 69 1013.1
20260506213517 39 296 0.9 1.7 0.00 0.00 0.00 68 1013.1
20260506212516 39 176 0.0 0.9 0.00 0.00 0.00 69 1013.2
20260506211517 40 207 0.0 1.7 0.00 0.00 0.00 69 1013.2
20260506210537 41 263 0.0 1.7 0.00 0.00 0.00 65 1013.0
20260506205516 41 287 0.0 0.9 0.00 0.00 0.00 65 1013.1
20260506204518 41 307 0.9 1.7 0.00 0.00 0.00 61 1013.0
20260506203537 41 333 0.9 1.7 0.00 0.00 0.00 60 1012.9
20260506202518 41 322 0.9 1.7 0.00 0.00 0.00 58 1012.9
20260506201518 42 337 0.9 1.7 0.00 0.00 0.00 58 1013.0
20260506200538 42 316 0.9 1.7 0.00 0.00 0.00 58 1012.9
20260506195518 42 25 0.9 2.6 0.00 0.00 0.00 57 1012.9
20260506194538 42 37 0.9 2.6 0.00 0.00 0.00 57 1013.0
20260506193515 42 73 0.9 1.7 0.00 0.00 0.00 57 1013.1
20260506192536 43 33 0.0 1.7 0.00 0.00 0.00 58 1013.2
20260506191536 43 353 0.9 2.6 0.00 0.00 0.00 57 1013.2
20260506190516 43 54 0.0 1.7 0.00 0.00 0.00 59 1013.3
20260506185516 43 93 0.0 0.9 0.00 0.00 0.00 58 1013.3
20260506184516 44 344 0.0 0.9 0.00 0.00 0.00 57 1013.2
20260506183516 44 336 0.0 0.9 0.00 0.00 0.00 56 1013.1
20260506182517 44 313 0.0 1.7 0.00 0.00 0.00 57 1013.0
20260506181517 45 41 0.9 2.6 0.00 0.00 0.00 54 1013.0
20260506180517 45 12 0.9 2.6 0.00 0.00 0.00 53 1012.9
20260506175518 45 11 0.9 2.6 0.00 0.00 0.00 53 1012.9
20260506174517 46 13 0.9 1.7 0.00 0.00 0.00 52 1012.8
20260506173517 46 40 0.9 3.5 0.00 0.00 0.00 50 1012.8
20260506172518 47 346 0.9 2.6 0.00 0.00 0.00 50 1012.8
20260506171518 47 12 0.9 2.6 0.00 0.00 0.00 49 1012.8
20260506170518 48 20 1.7 3.5 0.00 0.00 0.00 47 1012.8
20260506165518 48 23 0.9 3.5 0.00 0.00 0.00 46 1012.7
20260506164538 48 15 1.7 6.1 0.00 0.00 0.00 44 1012.6
20260506163516 49 36 1.7 4.3 0.00 0.00 0.00 37 1012.5
20260506162516 49 35 2.6 7.8 0.00 0.00 0.00 36 1012.5
20260506161516 49 21 2.6 4.3 0.00 0.00 0.00 37 1012.5
20260506160516 49 19 1.7 4.3 0.00 0.00 0.00 38 1012.5
20260506155516 50 0.0 0.0 0.00 0.00 0.00 38 1012.6
20260506154536 50 34 2.6 6.1 0.00 0.00 0.00 38 1012.7
20260506153517 50 42 2.6 4.3 0.00 0.00 0.00 37 1012.7
20260506152517 50 30 1.7 4.3 0.00 0.00 0.00 37 1012.6
20260506151517 50 5 2.6 7.0 0.00 0.00 0.00 36 1012.8
20260506150537 50 28 2.6 6.1 0.00 0.00 0.00 36 1012.8
20260506145517 51 6 2.6 4.3 0.00 0.00 0.00 34 1013.0
20260506144517 51 352 2.6 4.3 0.00 0.00 0.00 34 1013.1
20260506143517 51 28 2.6 6.1 0.00 0.00 0.00 34 1012.9
20260506142518 51 15 2.6 7.0 0.00 0.00 0.00 35 1012.8
20260506141518 51 353 1.7 4.3 0.00 0.00 0.00 34 1013.0
20260506140518 52 18 3.5 6.1 0.00 0.00 0.00 35 1013.0
20260506135518 52 26 3.5 6.1 0.00 0.00 0.00 35 1012.9
20260506134518 52 347 1.7 5.2 0.00 0.00 0.00 33 1012.8
20260506133538 52 333 2.6 5.2 0.00 0.00 0.00 34 1012.8
20260506132515 52 33 1.7 8.7 0.00 0.00 0.00 34 1012.8
20260506131518 52 352 2.6 5.2 0.00 0.00 0.00 34 1012.9
20260506130516 52 344 2.6 5.2 0.00 0.00 0.00 34 1013.0
20260506125516 52 7 1.7 6.1 0.00 0.00 0.00 33 1013.1
20260506124536 52 20 1.7 6.1 0.00 0.00 0.00 34 1013.0
20260506123516 53 1 1.7 6.1 0.00 0.00 0.00 32 1012.9
20260506122516 53 34 1.7 7.0 0.00 0.00 0.00 31 1012.8
20260506121516 53 55 3.5 7.8 0.00 0.00 0.00 30 1012.7
20260506120517 53 84 1.7 6.1 0.00 0.00 0.00 32 1012.4
20260506115517 55 44 2.6 7.0 0.00 0.00 0.00 31 1011.9
20260506114537 54 43 2.6 6.1 0.00 0.00 0.00 33 1012.2
20260506113517 54 328 1.7 5.2 0.00 0.00 0.00 32 1012.3
20260506112537 53 349 1.7 4.3 0.00 0.00 0.00 32 1012.2
20260506111537 54 52 3.5 6.1 0.00 0.00 0.00 32 1012.5
20260506110538 54 17 1.7 5.2 0.00 0.00 0.00 33 1013.0
20260506105518 55 8 2.6 6.1 0.00 0.00 0.00 33 1012.2
20260506104518 54 292 1.7 5.2 0.00 0.00 0.00 32 1012.1
20260506103518 53 118 2.6 7.0 0.00 0.00 0.00 33 1012.0
20260506102518 52 12 1.7 7.0 0.00 0.00 0.00 32 1012.2
20260506101535 52 30 2.6 6.1 0.00 0.00 0.00 35 1013.9
20260506100516 54 36 3.5 6.1 0.00 0.00 0.00 33 1013.1